Location: Newark
(49.1939°N, 0.8136°E)
Time: 16:59:18
(UTC+00:00)

Envisat - Pass Details

Date: 23 November 2019
Orbit: 764 x 766 km, 98.1° (Epoch: 05 December)

Event Time Altitude Azimuth Distance (km) Brightness Sun altitude
Rises 05:10:42 0° 33° (NNE) 3,242 6.6 -20.4°
Reaches altitude 10° 05:15:17 10° 71° (ENE) 2,307 6.4 -19.7°
Maximum altitude 05:16:22 11° 84° (E) 2,262 6.5 -19.5°
Drops below altitude 10° 05:17:28 10° 96° (E) 2,304 6.7 -19.3°
Sets 05:22:00 0° 135° (SE) 3,221 7.1 -18.6°
